Date String (YYYY-MM-DD hh:mm:ss) UTC,Instrument flags,absolute air pressure of the measurement (hPa),sample flow rate (lpm),inlet stack bypass flow (lpm),air temperature of the measurement (°C),ambient temperature measured by the external sensor (°C),aerosol sample conditioner tube jacket temperature (°C),OPC LED temperature (°C),internal box temperature (°C),relative humidity of the measurement (%),span deviation,mass concentration of particles derived from Lorenz-Mie calculation of OPC scattering (μg/m³),mass concentration of particles derived from Lorenz-Mie calculation of OPC scattering (μg/m³),mass concentration of particles derived from Lorenz-Mie calculation of OPC scattering (μg/m³)
DateTimeUTC,F1_M11,P_M11,Q1_M11,Q2_M11,T1_M11,T2_M11,T3_M11,T4_M11,T5_M11,U1_M11,ZSPAN_M11,X2_M11,X0_M11,X1_M11
2024-05-15 20:00:00,SystemResetWarning,0827.5,5.01,000.00,024.2,023.1,000.0,032.5,025.9,029.2,-000.5,0007.36,0013.01,0006.66
2024-05-15 20:01:00,SystemResetWarning,0827.5,4.99,000.00,024.2,023.3,000.0,032.5,026.0,029.1,-000.4,0007.42,0013.06,0006.72
2024-05-15 20:02:00,SystemResetWarning,0827.5,4.99,000.00,024.3,023.6,000.0,032.5,026.1,028.6,-000.3,0007.47,0012.86,0006.75
2024-05-15 20:03:00,SystemResetWarning,0827.6,4.99,000.00,024.4,023.8,000.0,032.5,026.2,028.7,0000.4,0007.42,0012.41,0006.75
2024-05-15 20:04:00,SystemResetWarning,0827.8,5.00,000.00,024.4,023.9,000.0,032.5,026.3,028.2,0000.6,0007.39,0012.30,0006.70
2024-05-15 20:05:00,SystemResetWarning,0827.9,5.00,000.00,024.5,024.1,000.0,032.5,026.4,028.3,0000.5,0007.32,0012.43,0006.63
2024-05-15 20:06:00,SystemResetWarning,0827.4,5.00,000.00,024.5,023.3,000.0,032.6,026.0,028.3,0000.1,0007.31,0012.23,0006.59
2024-05-15 20:07:00,SystemResetWarning,0827.4,5.00,000.00,024.2,021.8,000.0,032.7,025.2,029.1,0000.1,0007.34,0012.74,0006.59
2024-05-15 20:08:00,SystemResetWarning,0827.4,5.01,000.00,024.0,021.9,000.0,032.7,025.2,030.3,0000.8,0007.32,0013.18,0006.53
2024-05-15 20:09:00,SystemResetWarning,0827.4,4.99,000.00,024.0,022.2,000.0,032.5,025.3,030.8,0000.9,0007.26,0013.49,0006.50
2024-05-15 20:10:00,SystemResetWarning,0827.4,4.99,000.00,024.0,022.5,000.0,032.5,025.5,030.2,0000.7,0007.20,0013.41,0006.46
2024-05-15 20:11:00,SystemResetWarning,0827.4,5.01,000.00,024.1,022.8,000.0,032.4,025.7,028.8,0000.6,0007.18,0013.37,0006.42
2024-05-15 20:12:00,SystemResetWarning,0827.4,5.01,000.00,024.1,023.1,000.0,032.4,025.9,029.2,0001.0,0007.14,0013.31,0006.39
2024-05-15 20:13:00,SystemResetWarning,0827.4,4.98,000.00,024.2,023.4,000.0,032.4,026.0,028.6,0001.0,0007.11,0012.84,0006.34
2024-05-15 20:14:00,SystemResetWarning,0827.4,4.99,000.00,024.3,023.6,000.0,032.4,026.1,028.7,0000.8,0007.11,0012.83,0006.33
2024-05-15 20:15:00,SystemResetWarning,0827.4,5.00,000.00,024.3,023.8,000.0,032.4,026.2,028.7,0000.5,0007.08,0012.90,0006.33
2024-05-15 20:16:00,SystemResetWarning,0827.4,5.00,000.00,024.4,023.9,000.0,032.4,026.3,028.3,0000.5,0007.08,0012.78,0006.36
2024-05-15 20:17:00,SystemResetWarning,0827.4,5.00,000.00,024.4,023.5,000.0,032.5,026.1,027.9,0000.7,0007.10,0012.39,0006.40
2024-05-15 20:18:00,SystemResetWarning,0827.3,5.00,000.00,024.1,021.6,000.0,032.6,025.0,028.6,0001.0,0007.10,0011.74,0006.43
2024-05-15 20:19:00,SystemResetWarning,0827.3,5.00,000.00,023.8,020.7,000.0,032.6,024.5,030.0,0000.7,0007.07,0011.37,0006.43
2024-05-15 20:20:00,SystemResetWarning,0827.4,5.02,000.00,023.6,021.0,000.0,032.5,024.6,029.1,0000.5,0007.08,0010.97,0006.42
2024-05-15 20:21:00,SystemResetWarning,0827.4,5.00,000.00,023.6,021.4,000.0,032.3,024.8,028.9,0000.3,0007.14,0010.99,0006.50
2024-05-15 20:22:00,SystemResetWarning,0827.4,4.99,000.00,023.6,021.8,000.0,032.2,025.0,029.4,0000.0,0007.16,0011.00,0006.55
2024-05-15 20:23:00,SystemResetWarning,0827.4,5.00,000.00,023.7,022.2,000.0,032.2,025.3,029.6,0000.0,0007.14,0011.50,0006.55
2024-05-15 20:24:00,SystemResetWarning,0827.4,5.00,000.00,023.7,022.6,000.0,032.1,025.5,029.1,0000.2,0007.11,0011.40,0006.55
2024-05-15 20:25:00,SystemResetWarning,0827.3,5.00,000.00,023.8,022.9,000.0,032.1,025.6,029.0,0000.1,0007.11,0011.43,0006.56
2024-05-15 20:26:00,SystemResetWarning,0827.4,5.00,000.00,023.9,023.1,000.0,032.1,025.7,028.9,0000.0,0007.16,0011.69,0006.62
2024-05-15 20:27:00,SystemResetWarning,0827.3,4.99,000.00,024.0,023.4,000.0,032.2,025.9,028.9,-000.1,0007.20,0011.68,0006.63
2024-05-15 20:28:00,SystemResetWarning,0827.4,5.00,000.00,024.1,023.6,000.0,032.2,026.0,029.4,-000.1,0007.17,0011.54,0006.60
2024-05-15 20:29:00,SystemResetWarning,0827.3,5.00,000.00,024.1,023.7,000.0,032.2,026.1,028.6,0000.0,0007.14,0011.59,0006.55
2024-05-15 20:30:00,SystemResetWarning,0827.4,5.01,000.00,024.2,023.9,000.0,032.2,026.2,028.3,0000.2,0007.16,0011.58,0006.58
2024-05-15 20:31:00,SystemResetWarning,0827.4,5.01,000.00,024.3,024.0,000.0,032.3,026.3,028.2,0000.1,0007.16,0012.60,0006.60
2024-05-15 20:32:00,SystemResetWarning,0827.4,4.99,000.00,024.3,023.4,000.0,032.4,026.0,028.5,0000.3,0007.12,0013.39,0006.55
2024-05-15 20:33:00,SystemResetWarning,0827.3,4.99,000.00,024.0,021.7,000.0,032.4,025.1,028.4,0000.2,0007.09,0014.77,0006.52
2024-05-15 20:34:00,SystemResetWarning,0827.3,5.02,000.00,023.8,021.6,000.0,032.4,024.9,028.9,-000.0,0007.11,0014.37,0006.53
2024-05-15 20:35:00,SystemResetWarning,0827.3,5.00,000.00,023.8,021.9,000.0,032.3,025.0,028.5,0000.1,0007.18,0014.48,0006.54
2024-05-15 20:36:00,SystemResetWarning,0827.4,5.00,000.00,023.8,022.2,000.0,032.2,025.3,028.7,0000.2,0007.19,0014.50,0006.53
2024-05-15 20:37:00,SystemResetWarning,0827.3,5.00,000.00,023.9,022.6,000.0,032.2,025.5,028.9,0000.6,0007.19,0014.61,0006.49
2024-05-15 20:38:00,SystemResetWarning,0827.3,5.00,000.00,023.9,022.9,000.0,032.2,025.6,028.1,0000.5,0007.12,0014.53,0006.44
2024-05-15 20:39:00,SystemResetWarning,0827.3,5.00,000.00,024.0,023.1,000.0,032.2,025.8,028.2,0000.5,0007.06,0014.52,0006.41
2024-05-15 20:40:00,SystemResetWarning,0827.3,5.00,000.00,024.1,023.4,000.0,032.2,025.9,027.6,0000.5,0007.00,0014.53,0006.36
2024-05-15 20:41:00,SystemResetWarning,0827.3,5.00,000.00,024.2,023.6,000.0,032.2,026.1,027.4,0000.1,0006.98,0014.51,0006.34
2024-05-15 20:42:00,SystemResetWarning,0827.2,5.00,000.00,024.2,023.8,000.0,032.3,026.1,027.7,0000.3,0006.95,0013.90,0006.30
2024-05-15 20:43:00,SystemResetWarning,0827.3,5.00,000.00,024.3,023.9,000.0,032.3,026.3,028.1,0000.5,0006.92,0013.15,0006.26
2024-05-15 20:44:00,SystemResetWarning,0827.2,5.00,000.00,024.4,024.0,000.0,032.3,026.3,027.9,0000.9,0006.81,0011.48,0006.18
2024-05-15 20:45:00,SystemResetWarning,0827.2,5.00,000.00,024.5,024.1,000.0,032.4,026.4,028.3,0001.0,0006.70,0012.33,0006.08
2024-05-15 20:46:00,SystemResetWarning,0827.2,5.00,000.00,024.4,023.3,000.0,032.5,025.9,028.6,0000.9,0006.58,0012.34,0005.97
2024-05-15 20:47:00,SystemResetWarning,0827.2,5.00,000.00,024.1,021.7,000.0,032.5,025.1,029.3,0000.5,0006.43,0012.86,0005.84
2024-05-15 20:48:00,SystemResetWarning,0827.2,5.01,000.00,023.9,021.7,000.0,032.5,025.0,029.5,-000.3,0006.29,0012.71,0005.72
2024-05-15 20:49:00,SystemResetWarning,0827.3,5.00,000.00,023.9,022.0,000.0,032.4,025.2,029.4,-000.5,0006.20,0012.67,0005.63
2024-05-15 20:50:00,SystemResetWarning,0827.3,4.98,000.00,023.9,022.4,000.0,032.3,025.4,028.8,-000.0,0006.09,0012.90,0005.50
2024-05-15 20:51:00,SystemResetWarning,0827.3,5.01,000.00,024.0,022.7,000.0,032.3,025.6,028.8,0000.0,0006.03,0013.02,0005.43
2024-05-15 20:52:00,SystemResetWarning,0827.3,5.01,000.00,024.0,023.0,000.0,032.3,025.7,028.3,0000.0,0005.94,0012.94,0005.32
2024-05-15 20:53:00,SystemResetWarning,0827.3,5.00,000.00,024.1,023.2,000.0,032.3,025.9,028.5,0000.0,0005.84,0013.34,0005.21
2024-05-15 20:54:00,SystemResetWarning,0827.3,5.00,000.00,024.2,023.5,000.0,032.3,026.0,027.9,0000.0,0005.75,0013.55,0005.12
2024-05-15 20:55:00,SystemResetWarning,0827.3,5.00,000.00,024.2,023.6,000.0,032.3,026.1,027.4,0000.0,0005.78,0013.87,0005.09
2024-05-15 20:56:00,SystemResetWarning,0827.2,5.00,000.00,024.3,023.8,000.0,032.3,026.2,027.2,0000.0,0005.72,0013.54,0005.02
2024-05-15 20:57:00,SystemResetWarning,0827.3,5.00,000.00,024.4,024.0,000.0,032.4,026.3,027.2,0000.0,0005.61,0012.77,0004.93
2024-05-15 20:58:00,SystemResetWarning,0827.3,4.99,000.00,024.5,024.1,000.0,032.4,026.4,026.7,0000.0,0005.54,0012.46,0004.85
2024-05-15 20:59:00,SystemResetWarning,0827.3,4.99,000.00,024.5,024.2,000.0,032.5,026.5,026.7,0000.0,0005.48,0012.10,0004.79
